AGX74T LYBE-LDRI

Flight info

Callsign AGX74T
Flight time 0h 51m
Altitude 30000
Route TUVAR DCT PIXAL DCT RUGOG
Aircraft A320/M-SDE3FGHIRWY/LB1

Departure

Time 2026-05-09 10:20
Airport Belgrade Nikola Tesla Airport (LYBE)

Arrival

Time 2026-05-09 11:11
Airport Rijeka Airport (LDRI)
Time Latitude Longitude Altitude Speed Heading
2026-05-09 09:50 44.81520 20.29139 309 ft 0 kts 122°
2026-05-09 10:06 44.81524 20.29129 310 ft 3 kts 122°
2026-05-09 10:07 44.81535 20.29104 308 ft 3 kts 122°
2026-05-09 10:07 44.81546 20.29079 310 ft 3 kts 124°
2026-05-09 10:07 44.81551 20.29053 308 ft 3 kts 82°
2026-05-09 10:07 44.81545 20.29039 310 ft 0 kts 33°
2026-05-09 10:09 44.81548 20.29043 310 ft 5 kts 34°
2026-05-09 10:10 44.81634 20.29127 311 ft 24 kts 34°
2026-05-09 10:10 44.81690 20.29243 310 ft 9 kts 104°
2026-05-09 10:10 44.81701 20.29284 312 ft 5 kts 47°
2026-05-09 10:10 44.81752 20.29334 310 ft 13 kts 31°
2026-05-09 10:11 44.81830 20.29407 310 ft 14 kts 34°
2026-05-09 10:11 44.81909 20.29478 310 ft 13 kts 32°
2026-05-09 10:11 44.81989 20.29546 310 ft 13 kts 30°
2026-05-09 10:11 44.82065 20.29615 310 ft 12 kts 43°
2026-05-09 10:12 44.82061 20.29712 311 ft 10 kts 120°
2026-05-09 10:12 44.82027 20.29794 310 ft 10 kts 120°
2026-05-09 10:12 44.81990 20.29877 311 ft 10 kts 124°
2026-05-09 10:12 44.81949 20.29960 311 ft 10 kts 124°
2026-05-09 10:13 44.81912 20.30044 311 ft 10 kts 121°
2026-05-09 10:13 44.81876 20.30125 310 ft 10 kts 121°
2026-05-09 10:13 44.81841 20.30206 310 ft 10 kts 121°
2026-05-09 10:13 44.81809 20.30285 310 ft 9 kts 120°
2026-05-09 10:14 44.81779 20.30358 311 ft 8 kts 120°
2026-05-09 10:14 44.81751 20.30426 311 ft 8 kts 122°
2026-05-09 10:14 44.81710 20.30510 310 ft 16 kts 124°
2026-05-09 10:14 44.81642 20.30660 311 ft 18 kts 122°
2026-05-09 10:15 44.81572 20.30811 310 ft 19 kts 122°
2026-05-09 10:15 44.81501 20.30966 310 ft 19 kts 123°
2026-05-09 10:15 44.81431 20.31118 310 ft 17 kts 123°
2026-05-09 10:15 44.81374 20.31261 309 ft 16 kts 120°
2026-05-09 10:16 44.81316 20.31393 309 ft 16 kts 122°
2026-05-09 10:16 44.81259 20.31524 309 ft 15 kts 122°
2026-05-09 10:16 44.81202 20.31650 310 ft 15 kts 122°
2026-05-09 10:16 44.81146 20.31777 309 ft 15 kts 122°
2026-05-09 10:17 44.81089 20.31905 309 ft 15 kts 122°
2026-05-09 10:17 44.81033 20.32033 309 ft 15 kts 122°
2026-05-09 10:17 44.80993 20.32165 310 ft 14 kts 87°
2026-05-09 10:17 44.81042 20.32270 309 ft 12 kts 33°
2026-05-09 10:18 44.81109 20.32302 309 ft 8 kts
2026-05-09 10:18 44.81160 20.32299 309 ft 7 kts 354°
2026-05-09 10:18 44.81197 20.32282 311 ft 6 kts 335°
2026-05-09 10:18 44.81245 20.32230 311 ft 12 kts 318°
2026-05-09 10:19 44.81302 20.32119 313 ft 17 kts 304°
2026-05-09 10:19 44.81452 20.31782 311 ft 74 kts 301°
2026-05-09 10:19 44.81847 20.30899 311 ft 137 kts 302°
2026-05-09 10:19 44.82400 20.29679 692 ft 149 kts 302°
2026-05-09 10:20 44.82885 20.28380 1273 ft 153 kts 294°
2026-05-09 10:20 44.83293 20.26895 1707 ft 171 kts 289°
2026-05-09 10:20 44.83919 20.25422 2265 ft 177 kts 311°
2026-05-09 10:20 44.84862 20.24244 3008 ft 190 kts 320°
2026-05-09 10:21 44.85809 20.22808 3548 ft 211 kts 313°
2026-05-09 10:21 44.86706 20.21026 3984 ft 232 kts 298°
2026-05-09 10:21 44.87444 20.18960 4515 ft 238 kts 300°
2026-05-09 10:21 44.88232 20.16888 5013 ft 244 kts 302°
2026-05-09 10:22 44.89098 20.14746 5576 ft 254 kts 302°
2026-05-09 10:22 44.89979 20.12632 5999 ft 248 kts 304°
2026-05-09 10:22 44.90862 20.10567 6720 ft 250 kts 304°
2026-05-09 10:22 44.91772 20.08468 7754 ft 251 kts 304°
2026-05-09 10:23 44.92693 20.06371 8797 ft 252 kts 304°
2026-05-09 10:23 44.93620 20.04254 9806 ft 255 kts 304°
2026-05-09 10:23 44.94561 20.02108 10726 ft 258 kts 304°
2026-05-09 10:23 44.95512 19.99963 11707 ft 258 kts 303°
2026-05-09 10:24 44.96464 19.97809 12682 ft 260 kts 302°
2026-05-09 10:24 44.97419 19.95619 13603 ft 264 kts 301°
2026-05-09 10:24 44.98402 19.93362 14240 ft 279 kts 301°
2026-05-09 10:24 44.99460 19.90938 14633 ft 300 kts 301°
2026-05-09 10:25 45.00443 19.88276 15253 ft 311 kts 289°
2026-05-09 10:25 45.01027 19.85304 16030 ft 317 kts 283°
2026-05-09 10:25 45.01502 19.82231 16827 ft 323 kts 282°
2026-05-09 10:25 45.01968 19.79103 17685 ft 327 kts 281°
2026-05-09 10:26 45.02441 19.75946 18530 ft 330 kts 282°
2026-05-09 10:26 45.02923 19.72751 19216 ft 335 kts 282°
2026-05-09 10:26 45.03414 19.69512 19936 ft 338 kts 281°
2026-05-09 10:26 45.03911 19.66242 20661 ft 342 kts 281°
2026-05-09 10:27 45.04414 19.62933 21373 ft 346 kts 281°
2026-05-09 10:27 45.04923 19.59582 22055 ft 351 kts 281°
2026-05-09 10:27 45.05436 19.56195 22752 ft 354 kts 281°
2026-05-09 10:27 45.05954 19.52769 23398 ft 359 kts 281°
2026-05-09 10:28 45.06479 19.49299 23975 ft 362 kts 281°
2026-05-09 10:28 45.07005 19.45808 24590 ft 363 kts 281°
2026-05-09 10:28 45.07530 19.42314 25212 ft 363 kts 282°
2026-05-09 10:28 45.08055 19.38817 25824 ft 364 kts 282°
2026-05-09 10:29 45.08580 19.35312 26397 ft 365 kts 282°
2026-05-09 10:29 45.09105 19.31796 26960 ft 366 kts 282°
2026-05-09 10:29 45.09632 19.28265 27512 ft 367 kts 282°
2026-05-09 10:29 45.10158 19.24730 28045 ft 368 kts 282°
2026-05-09 10:30 45.10685 19.21177 28566 ft 369 kts 282°
2026-05-09 10:30 45.11213 19.17611 29098 ft 371 kts 282°
2026-05-09 10:30 45.11734 19.14082 29570 ft 372 kts 283°
2026-05-09 10:30 45.12264 19.10486 29988 ft 375 kts 283°
2026-05-09 10:31 45.12702 19.06836 30073 ft 376 kts 279°
2026-05-09 10:31 45.13179 18.99451 30082 ft 377 kts 275°
2026-05-09 10:32 45.13479 18.92033 30084 ft 377 kts 275°
2026-05-09 10:32 45.13781 18.84615 30081 ft 377 kts 275°
2026-05-09 10:33 45.14111 18.77201 30081 ft 377 kts 275°
2026-05-09 10:33 45.14464 18.69796 30077 ft 376 kts 275°
2026-05-09 10:34 45.14812 18.62402 30071 ft 376 kts 275°
2026-05-09 10:34 45.15285 18.51312 30078 ft 376 kts 275°
2026-05-09 10:35 45.15600 18.43912 30078 ft 376 kts 275°
2026-05-09 10:35 45.15915 18.36516 30091 ft 376 kts 275°
2026-05-09 10:36 45.16227 18.29120 30087 ft 376 kts 274°
2026-05-09 10:36 45.16535 18.21726 30084 ft 376 kts 274°
2026-05-09 10:37 45.16837 18.14330 30092 ft 376 kts 274°
2026-05-09 10:37 45.17134 18.06936 30092 ft 376 kts 274°
2026-05-09 10:38 45.17427 17.99540 30089 ft 376 kts 274°
2026-05-09 10:38 45.17715 17.92147 30095 ft 376 kts 273°
2026-05-09 10:39 45.17997 17.84753 30091 ft 376 kts 273°
2026-05-09 10:39 45.18274 17.77406 30090 ft 376 kts 273°
2026-05-09 10:40 45.18547 17.70010 30095 ft 376 kts 273°
2026-05-09 10:40 45.18816 17.62608 30094 ft 377 kts 273°
2026-05-09 10:41 45.19081 17.55185 30092 ft 377 kts 272°
2026-05-09 10:41 45.19341 17.47766 30086 ft 377 kts 272°
2026-05-09 10:42 45.19595 17.40353 30092 ft 376 kts 272°
2026-05-09 10:42 45.19845 17.32938 30083 ft 377 kts 272°
2026-05-09 10:43 45.20091 17.25523 30090 ft 376 kts 272°
2026-05-09 10:43 45.20331 17.18106 30087 ft 376 kts 272°
2026-05-09 10:44 45.20567 17.10685 30087 ft 377 kts 272°
2026-05-09 10:44 45.20798 17.03284 29474 ft 374 kts 272°
2026-05-09 10:45 45.20910 16.99611 28909 ft 372 kts 272°
2026-05-09 10:46 45.21341 16.85161 26324 ft 362 kts 272°
2026-05-09 10:46 45.21444 16.81610 25688 ft 359 kts 272°
2026-05-09 10:46 45.21545 16.78080 25079 ft 357 kts 272°
2026-05-09 10:46 45.21644 16.74576 24488 ft 354 kts 273°
2026-05-09 10:47 45.21742 16.71099 23894 ft 352 kts 273°
2026-05-09 10:47 45.21838 16.67638 23223 ft 350 kts 273°
2026-05-09 10:47 45.21933 16.64197 22532 ft 348 kts 273°
2026-05-09 10:47 45.22026 16.60781 21870 ft 345 kts 273°
2026-05-09 10:48 45.22117 16.57386 21240 ft 343 kts 273°
2026-05-09 10:48 45.22243 16.54023 20614 ft 340 kts 275°
2026-05-09 10:48 45.22405 16.50682 19983 ft 338 kts 275°
2026-05-09 10:48 45.22573 16.47367 19363 ft 336 kts 275°
2026-05-09 10:49 45.22739 16.44067 18756 ft 334 kts 275°
2026-05-09 10:49 45.22903 16.40791 18113 ft 332 kts 275°
2026-05-09 10:49 45.23065 16.37529 17445 ft 330 kts 275°
2026-05-09 10:49 45.23223 16.34331 16799 ft 328 kts 275°
2026-05-09 10:50 45.23380 16.31112 16155 ft 326 kts 275°
2026-05-09 10:50 45.23536 16.27909 15534 ft 324 kts 275°
2026-05-09 10:50 45.23689 16.24727 14921 ft 322 kts 275°
2026-05-09 10:50 45.23841 16.21561 14332 ft 321 kts 275°
2026-05-09 10:51 45.23991 16.18416 13714 ft 319 kts 275°
2026-05-09 10:51 45.24140 16.15289 13092 ft 316 kts 274°
2026-05-09 10:51 45.24286 16.12189 12473 ft 313 kts 274°
2026-05-09 10:51 45.24431 16.09118 11877 ft 310 kts 274°
2026-05-09 10:52 45.24572 16.06084 11329 ft 306 kts 274°
2026-05-09 10:52 45.24712 16.03077 10742 ft 304 kts 274°
2026-05-09 10:52 45.24848 16.00117 10302 ft 296 kts 275°
2026-05-09 10:52 45.24980 15.97249 10079 ft 290 kts 274°
2026-05-09 10:53 45.25066 15.95361 10054 ft 289 kts 274°
2026-05-09 10:53 45.25196 15.92509 10042 ft 292 kts 274°
2026-05-09 10:53 45.25328 15.89584 10004 ft 295 kts 274°
2026-05-09 10:53 45.25456 15.86722 9996 ft 293 kts 274°
2026-05-09 10:54 45.25585 15.83853 9998 ft 290 kts 274°
2026-05-09 10:54 45.25711 15.81005 9999 ft 289 kts 274°
2026-05-09 10:54 45.25837 15.78150 10003 ft 292 kts 274°
2026-05-09 10:54 45.25964 15.75251 10002 ft 296 kts 274°
2026-05-09 10:55 45.26092 15.72337 10001 ft 296 kts 274°
2026-05-09 10:55 45.26218 15.69445 9996 ft 291 kts 274°
2026-05-09 10:55 45.26340 15.66588 9999 ft 289 kts 274°
2026-05-09 10:55 45.26463 15.63744 10001 ft 289 kts 274°
2026-05-09 10:56 45.26584 15.60898 10007 ft 289 kts 274°
2026-05-09 10:56 45.26705 15.58030 9998 ft 291 kts 274°
2026-05-09 10:56 45.26826 15.55172 9998 ft 290 kts 274°
2026-05-09 10:56 45.26947 15.52312 9625 ft 290 kts 274°
2026-05-09 10:57 45.27065 15.49478 9250 ft 286 kts 274°
2026-05-09 10:57 45.27181 15.46676 8850 ft 283 kts 274°
2026-05-09 10:57 45.27296 15.43894 8425 ft 282 kts 274°
2026-05-09 10:57 45.27409 15.41126 8079 ft 280 kts 274°
2026-05-09 10:58 45.27521 15.38374 8003 ft 279 kts 274°
2026-05-09 10:58 45.27627 15.35617 7999 ft 280 kts 272°
2026-05-09 10:58 45.27472 15.32865 8000 ft 281 kts 257°
2026-05-09 10:58 45.26701 15.30337 8000 ft 281 kts 236°
2026-05-09 10:59 45.25383 15.28300 8005 ft 281 kts 222°
2026-05-09 10:59 45.23893 15.26498 8002 ft 282 kts 220°
2026-05-09 10:59 45.22379 15.24734 8003 ft 282 kts 220°
2026-05-09 10:59 45.20864 15.22968 8000 ft 282 kts 220°
2026-05-09 11:00 45.19353 15.21195 8000 ft 282 kts 220°
2026-05-09 11:00 45.17864 15.19443 8000 ft 282 kts 220°
2026-05-09 11:00 45.16356 15.17665 8003 ft 282 kts 220°
2026-05-09 11:00 45.14853 15.15890 7999 ft 279 kts 220°
2026-05-09 11:01 45.13364 15.14132 8002 ft 279 kts 221°
2026-05-09 11:01 45.11918 15.12425 7992 ft 262 kts 220°
2026-05-09 11:01 45.10560 15.10823 7987 ft 246 kts 220°
2026-05-09 11:01 45.09270 15.09302 7994 ft 238 kts 220°
2026-05-09 11:02 45.07999 15.07802 8001 ft 238 kts 220°
2026-05-09 11:02 45.06723 15.06302 7988 ft 239 kts 220°
2026-05-09 11:02 45.05457 15.04769 7699 ft 240 kts 226°
2026-05-09 11:02 45.04505 15.02874 7406 ft 237 kts 247°
2026-05-09 11:03 45.03957 15.00689 7120 ft 235 kts 254°
2026-05-09 11:03 45.03517 14.98507 6903 ft 225 kts 255°
2026-05-09 11:03 45.03108 14.96430 6616 ft 215 kts 255°
2026-05-09 11:03 45.02709 14.94412 6205 ft 212 kts 255°
2026-05-09 11:04 45.02307 14.92406 5735 ft 212 kts 254°
2026-05-09 11:04 45.01904 14.90412 5274 ft 210 kts 254°
2026-05-09 11:04 45.01503 14.88435 4847 ft 209 kts 254°
2026-05-09 11:04 45.01101 14.86463 4616 ft 210 kts 253°
2026-05-09 11:05 45.00697 14.84478 4601 ft 210 kts 254°
2026-05-09 11:05 45.00306 14.82491 4604 ft 210 kts 258°
2026-05-09 11:05 45.00261 14.80456 4599 ft 207 kts 283°
2026-05-09 11:05 45.00904 14.78676 4601 ft 205 kts 314°
2026-05-09 11:06 45.01978 14.77357 4602 ft 205 kts 324°
2026-05-09 11:06 45.03127 14.76184 4602 ft 200 kts 326°
2026-05-09 11:06 45.04216 14.75092 4588 ft 188 kts 326°
2026-05-09 11:06 45.05287 14.74015 4457 ft 187 kts 326°
2026-05-09 11:07 45.06339 14.72951 4122 ft 182 kts 324°
2026-05-09 11:07 45.07341 14.71921 3792 ft 175 kts 325°
2026-05-09 11:07 45.08303 14.70933 3416 ft 171 kts 324°
2026-05-09 11:07 45.09222 14.69969 3170 ft 158 kts 323°
2026-05-09 11:08 45.10064 14.69019 2890 ft 153 kts 321°
2026-05-09 11:08 45.10916 14.68114 2673 ft 154 kts 323°
2026-05-09 11:08 45.11790 14.67237 2487 ft 154 kts 325°
2026-05-09 11:08 45.12682 14.66391 2251 ft 153 kts 324°
2026-05-09 11:09 45.13538 14.65506 2153 ft 152 kts 322°
2026-05-09 11:09 45.14379 14.64597 2031 ft 151 kts 319°
2026-05-09 11:09 45.15199 14.63681 1810 ft 150 kts 322°
2026-05-09 11:09 45.16053 14.62829 1598 ft 150 kts 325°
2026-05-09 11:10 45.16927 14.62035 1367 ft 149 kts 324°
2026-05-09 11:10 45.17753 14.61142 1223 ft 150 kts 319°
2026-05-09 11:10 45.18583 14.60267 1010 ft 147 kts 324°
2026-05-09 11:10 45.19405 14.59439 742 ft 144 kts 321°
2026-05-09 11:11 45.20220 14.58585 512 ft 147 kts 322°
2026-05-09 11:11 45.21030 14.57748 288 ft 141 kts 321°
2026-05-09 11:11 45.21729 14.57008 266 ft 96 kts 324°
2026-05-09 11:11 45.22025 14.56712 266 ft 5 kts 359°
2026-05-09 11:12 45.22042 14.56732 267 ft 5 kts 59°
2026-05-09 11:12 45.22035 14.56819 267 ft 10 kts 105°
2026-05-09 11:12 45.22018 14.56911 269 ft 8 kts 104°
2026-05-09 11:12 45.22009 14.56965 271 ft 5 kts 102°
2026-05-09 11:13 45.22002 14.56984 271 ft 2 kts 143°
2026-05-09 11:13 45.21971 14.57014 271 ft 6 kts 139°
2026-05-09 11:13 45.21963 14.57050 272 ft 5 kts 92°
2026-05-09 11:13 45.21957 14.57103 272 ft 3 kts 105°